Tracking 18852 objects as of 24-Nov-2017
HD Live streaming from Space Station
objects crossing your sky now

FENGYUN 1C DEB

Track FENGYUN 1C DEB now!
10-day predictions


NORAD ID: 33646
Int'l Code: 1999-025DEF
Perigee: 839.6 km
Apogee: 1,018.8 km
Inclination: 98.6 °
Period: 103.5 minutes
Semi major axis: 7300 km
RCS: 0.0171 m2 (small)
Launch date: May 10, 1999
Source: People's Republic of China (PRC)
Launch site: Taiyaun Space Center, China (TSC)

Note: This is SATELLITE DEBRIS
aabbcc
Your satellite tracking list
Your tracking list is empty




NASA's NSSDC Master Catalog

Two Line Element Set (TLE):
1 33646U 99025DEF 17327.06053333  .00000659  00000-0  51486-3 0  9997
2 33646  98.6039  47.8499 0122726  51.8357  70.4740 13.91888723516823
Source of the keplerian elements: AFSPC